GW3344 Weather Reports


time (UTC)temp
C
wind
direction
speed
KPH
gust
KPH
rain 1hr
cm
rain 24hr
cm
rain mn
cm
humidity
%
barometer
mb
20260505080920 14 163 0.0 4.8 0.00 0.03 0.03 86 1003.1
20260505075920 14 149 1.6 9.7 0.00 0.03 0.03 86 1003.1
20260505074919 14 219 0.0 3.2 0.03 0.03 0.03 86 1003.1
20260505074018 15 201 3.2 11.3 0.03 0.03 0.03 87 1003.2
20260505073021 15 282 1.6 6.4 0.03 0.03 0.03 86 1003.3
20260505071020 15 201 4.8 16.1 0.03 0.03 0.03 86 1003.3
20260505070020 15 245 9.7 24.1 0.03 0.03 0.03 80 1004.3
20260505065019 15 216 4.8 19.3 0.00 0.00 0.00 78 1004.2
20260505064020 16 254 4.8 6.4 0.00 0.00 0.00 74 1004.3
20260505063021 16 252 11.3 24.1 0.00 0.00 0.00 69 1004.4
20260505062037 17 247 9.7 24.1 0.00 0.00 0.00 67 1004.2
20260505061120 17 228 3.2 8.0 0.00 0.00 0.00 65 1004.3
20260505060120 17 255 8.0 16.1 0.00 0.00 0.00 65 1004.1
20260505054218 17 233 9.7 17.7 0.00 0.00 0.00 65 1004.1
20260505053220 17 239 9.7 22.5 0.00 0.00 0.00 65 1004.1
20260505052220 17 257 9.7 17.7 0.00 0.00 0.00 66 1004.1
20260505051220 17 246 14.5 24.1 0.00 0.00 0.00 65 1004.1
20260505050220 17 268 6.4 16.1 0.00 0.00 0.00 64 1004.1
20260505041321 16 231 0.0 0.0 0.00 0.00 0.00 66 1004.1
20260505035509 16 135 0.0 1.6 0.00 0.00 0.00 65 1004.1
20260505033510 16 176 1.6 4.8 0.00 0.00 0.00 60 1004.6
20260505032610 16 261 1.6 4.8 0.00 0.00 0.00 58 1004.6
20260505030712 16 195 0.0 1.6 0.00 0.00 0.00 57 1005.0
20260505025809 16 221 3.2 11.3 0.00 0.00 0.00 56 1004.8
20260505023910 15 135 0.0 0.0 0.00 0.00 0.00 62 1004.6
20260505022909 14 270 0.0 0.0 0.00 0.00 0.00 63 1004.6
20260505020908 14 135 0.0 0.0 0.00 0.00 0.00 64 1004.8
20260505014910 14 154 0.0 0.0 0.00 0.00 0.00 66 1004.8
20260505014809 14 157 0.0 0.0 0.00 0.00 0.00 66 1004.8
20260505013808 13 157 0.0 0.0 0.00 0.00 0.00 68 1004.9
20260505012810 14 157 0.0 0.0 0.00 0.00 0.00 70 1005.0
20260505011908 14 157 0.0 0.0 0.00 0.00 0.00 68 1004.9
20260505005910 15 180 0.0 0.0 0.00 0.00 0.00 65 1004.9
20260505004910 15 180 0.0 0.0 0.00 0.00 0.00 62 1004.9
20260505003910 16 202 0.0 0.0 0.00 0.00 0.00 60 1004.9
20260505003008 17 202 0.0 0.0 0.00 0.00 0.00 56 1004.8
20260505002009 18 202 0.0 0.0 0.00 0.00 0.00 49 1004.7
20260505001024 18 202 0.0 1.6 0.00 0.00 0.00 46 1004.7
20260505000110 19 266 4.8 6.4 0.00 0.00 0.00 43 1004.9
20260504234109 20 228 4.8 9.7 0.00 0.00 0.00 39 1004.9
20260504233110 20 244 6.4 11.3 0.00 0.00 0.00 38 1004.9
20260504232108 21 249 4.8 9.7 0.00 0.03 0.00 37 1004.8
20260504231208 21 235 8.0 12.9 0.00 0.03 0.00 38 1004.8
20260504230307 21 255 3.2 9.7 0.00 0.03 0.00 36 1004.7
20260504225311 21 256 9.7 17.7 0.00 0.03 0.00 35 1004.7
20260504224409 21 267 8.0 12.9 0.00 0.03 0.00 36 1004.7
20260504222410 21 261 17.7 25.7 0.00 0.03 0.00 35 1004.8
20260504221410 22 256 9.7 17.7 0.00 0.03 0.00 36 1004.7
20260504220412 22 252 9.7 17.7 0.00 0.03 0.00 36 1004.8
20260504215508 22 255 12.9 20.9 0.00 0.03 0.00 35 1004.6
20260504213608 22 244 6.4 17.7 0.00 0.03 0.00 36 1004.7
20260504211708 22 241 9.7 30.6 0.00 0.03 0.00 35 1004.7
20260504205710 22 243 17.7 30.6 0.00 0.03 0.00 37 1004.8
20260504204807 22 254 9.7 17.7 0.00 0.03 0.00 37 1004.8
20260504202809 22 250 11.3 16.1 0.00 0.03 0.00 39 1004.9
20260504201908 22 252 11.3 16.1 0.00 0.03 0.00 41 1005.1
20260504200909 22 235 9.7 17.7 0.00 0.03 0.00 40 1005.2
20260504195910 22 250 9.7 22.5 0.00 0.03 0.00 40 1005.3
20260504195009 22 267 8.0 16.1 0.00 0.03 0.00 40 1005.5
20260504194109 22 260 14.5 25.7 0.00 0.03 0.00 41 1005.7
20260504193108 21 233 17.7 30.6 0.00 0.03 0.00 42 1005.9
20260504193009 21 261 11.3 22.5 0.00 0.03 0.00 42 1005.9
20260504192107 21 253 16.1 27.4 0.00 0.03 0.00 44 1005.9
20260504191110 21 227 20.9 32.2 0.00 0.03 0.00 43 1006.2
20260504190110 21 241 17.7 29.0 0.00 0.03 0.00 45 1006.4
20260504185208 21 241 12.9 22.5 0.00 0.03 0.00 44 1006.2
20260504185107 21 240 19.3 35.4 0.00 0.03 0.00 45 1006.2
20260504184110 21 228 6.4 25.7 0.00 0.03 0.00 46 1006.4
20260504183110 21 258 14.5 27.4 0.00 0.03 0.00 48 1006.7
20260504182108 20 249 14.5 25.7 0.00 0.03 0.00 47 1006.7
20260504181107 20 252 12.9 24.1 0.00 0.03 0.00 48 1006.7
20260504180110 20 233 11.3 20.9 0.00 0.03 0.00 49 1007.0
20260504175109 20 250 11.3 22.5 0.00 0.03 0.00 48 1007.1
20260504174108 20 223 6.4 14.5 0.00 0.03 0.00 50 1007.3
20260504173207 19 256 17.7 32.2 0.00 0.03 0.00 49 1007.3
20260504172208 19 253 6.4 14.5 0.00 0.03 0.00 48 1007.4
20260504171207 18 252 17.7 27.4 0.00 0.03 0.00 50 1007.4
20260504170307 18 258 12.9 25.7 0.00 0.03 0.00 50 1007.5
20260504160207 17 250 17.7 29.0 0.00 0.03 0.00 50 1007.8
20260504150308 17 251 17.7 32.2 0.00 0.03 0.00 50 1008.4
20260504141209 16 249 16.1 22.5 0.00 0.03 0.00 50 1008.3
20260504140209 16 261 16.1 25.7 0.00 0.03 0.00 51 1008.2
20260504130417 15 272 11.3 14.5 0.00 0.03 0.00 53 1008.7